Theta_e
301 291 287 292 294 294 292 289 287 289 294 291 291 292 296 297 296 296 297 297 297 298 302 303 311 318 322 323 325 326 327 329 328 327 326 325 325 327 328 327 326 325 326 324
295 288 291 296 296 293 291 289 287 291 293 292 290 290 293 294 295 296 296 297 297 297 299 301 302 305 316 321 322 325 326 327 328 328 328 327 325 325 326 328 327 326 325 325
290 292 297 294 291 289 288 287 286 287 292 291 286 285 289 293 293 294 295 296 296 297 299 300 300 301 306 314 319 322 324 326 328 329 327 324 322 322 321 323 324 326 326 326
291 294 294 291 289 290 285 291 291 290 287 282 286 277 285 288 290 291 293 292 294 295 296 298 300 300 300 305 314 318 321 324 327 328 326 324 324 322 324 325 325 325 326 326
289 291 291 290 291 292 288 293 291 290 285 283 281 281 283 287 287 290 292 293 292 293 294 296 298 300 300 301 301 308 315 319 323 327 327 325 323 325 326 324 324 325 326 325
291 295 294 293 295 294 294 291 290 288 285 276 282 282 280 284 288 289 291 293 293 294 295 296 297 298 298 299 300 302 305 309 316 321 325 325 324 324 324 323 323 325 325 324
291 290 294 295 291 293 291 287 277 276 275 274 280 281 282 288 290 289 291 292 293 295 295 295 295 296 296 297 297 298 300 301 304 308 313 320 323 323 323 323 323 323 322 323
280 278 291 295 291 289 289 287 279 273 274 275 281 278 282 288 289 290 292 293 295 295 295 295 296 296 296 297 299 298 299 300 301 302 303 305 308 315 321 322 323 323 323 324
281 281 289 293 293 294 289 285 288 282 271 274 278 281 286 288 289 289 291 292 293 294 294 294 295 296 297 298 300 300 301 302 302 303 303 303 303 304 306 312 317 321 322 322
286 280 287 290 293 293 290 292 284 283 271 269 277 278 280 284 286 288 290 291 292 294 295 295 295 294 296 298 299 300 302 302 303 304 306 306 306 305 305 306 309 313 317 317
289 284 282 288 286 286 288 287 286 286 282 275 272 276 283 286 287 287 289 290 291 292 293 293 295 294 295 296 298 299 299 300 301 302 304 306 307 308 308 308 308 310 313 314
289 285 277 281 287 290 290 286 286 279 277 280 280 278 287 288 289 289 290 291 292 292 292 293 293 294 295 295 296 297 298 298 299 300 301 303 304 305 306 307 309 309 308 309
288 281 270 276 281 285 285 284 287 288 287 280 276 278 289 288 286 288 288 289 291 292 291 293 294 293 294 295 296 295 296 296 297 298 298 299 299 299 300 302 304 305 306 306
290 284 281 274 277 282 282 282 283 284 278 277 279 281 284 285 285 288 289 290 290 291 291 292 292 292 294 294 293 292 293 294 294 296 296 296 296 296 297 298 299 300 301 301
284 272 277 279 281 284 282 282 282 281 281 278 281 280 284 284 284 286 288 289 291 291 291 290 290 291 290 289 288 289 290 290 291 291 291 289 289 290 292 293 294 295 296 296
285 269 275 271 280 282 279 282 281 282 281 281 281 280 287 286 285 285 286 287 288 289 290 290 289 288 287 285 284 285 287 286 286 286 285 285 285 286 287 288 289 291 292 293
280 273 267 264 273 270 267 274 280 281 281 280 277 281 286 285 285 285 285 286 286 288 288 288 286 285 284 282 282 282 283 283 282 282 282 281 281 282 283 284 286 287 288 290
275 274 269 263 263 259 274 277 278 279 280 283 283 284 286 286 287 286 287 286 287 287 288 286 283 282 281 279 279 280 281 280 280 280 279 279 279 279 280 281 281 283 284 286
282 276 265 263 255 268 275 276 276 276 276 281 281 283 283 284 283 283 286 287 288 287 285 283 280 279 278 276 277 278 278 277 277 277 277 277 277 278 278 278 279 280 281 283
281 279 270 261 259 259 272 276 279 279 271 280 280 281 281 283 279 279 286 288 288 285 281 279 278 277 275 275 275 277 276 275 274 275 275 276 276 277 276 277 278 279 280 281
271 274 274 270 269 267 277 279 280 267 273 281 282 282 284 281 283 285 285 285 283 281 279 276 275 274 273 273 274 275 273 272 273 274 274 274 274 274 275 275 276 277 278 278
267 265 265 269 269 263 278 279 276 280 281 282 282 283 283 284 284 283 283 283 281 277 276 276 274 272 271 271 271 271 270 271 272 272 272 271 271 273 273 271 273 274 274 274
268 273 268 270 270 279 280 281 282 282 282 281 281 282 282 282 282 282 282 280 279 275 275 274 272 271 269 269 269 269 268 269 271 270 269 270 270 271 271 269 271 271 271 273
276 278 275 275 278 279 281 282 282 282 282 282 282 281 280 280 281 280 279 279 275 273 272 271 270 269 267 267 267 266 267 268 266 266 268 270 269 269 271 272 272 271 270 269
276 277 275 275 279 280 280 281 281 282 282 281 280 279 278 277 277 276 275 273 272 271 270 269 268 267 265 265 265 264 266 267 268 269 269 269 269 268 269 271 274 273 274 273
279 278 275 275 280 280 280 281 280 279 278 276 275 275 275 274 273 273 272 270 270 269 269 268 267 265 265 265 265 265 266 267 268 269 269 269 269 269 270 270 270 275 277 277
Wind_Speed
1 3 6 9 9 5 4 1 2 3 0 1 5 6 15 5 5 9 9 8 9 10 10 8 10 12 11 10 10 13 13 14 9 8 7 7 10 9 8 8 9 9 9 9
3 7 5 3 3 1 2 1 3 6 3 2 5 7 11 7 6 7 9 10 11 8 9 9 9 7 9 13 14 14 15 13 11 9 8 6 5 6 7 7 9 11 11 11
4 1 6 6 4 4 2 4 3 4 5 0 3 7 6 7 3 5 8 9 10 13 14 11 7 8 7 9 11 13 13 14 12 14 5 2 1 0 2 7 8 11 11 12
4 3 4 4 5 5 4 6 4 2 1 5 3 8 6 6 7 4 10 9 12 10 7 9 8 8 6 9 5 7 8 10 11 12 9 12 11 10 9 9 7 9 12 14
6 2 4 3 4 7 5 3 5 3 2 2 1 3 8 2 5 9 9 7 7 7 8 9 8 8 7 5 5 6 6 6 8 13 14 11 12 10 9 5 9 10 9 12
4 2 5 7 4 7 5 5 6 4 2 3 7 6 4 5 6 5 5 8 9 10 9 8 7 8 7 6 6 5 4 5 4 4 9 13 14 12 9 8 7 8 7 7
2 3 4 1 4 2 2 6 2 3 1 7 4 2 5 10 5 4 7 9 10 10 10 9 9 9 9 9 8 6 5 5 4 3 5 6 9 9 11 11 8 8 6 6
5 3 6 4 5 6 6 6 5 6 4 3 3 6 6 5 7 5 7 7 12 14 11 10 10 8 8 9 9 7 7 6 5 3 5 6 6 5 7 8 9 8 9 9
4 4 1 2 2 6 4 6 5 5 3 3 4 6 9 5 9 11 11 13 12 12 11 10 10 8 9 9 8 7 6 5 5 5 4 5 5 6 6 7 7 7 7 7
2 1 1 2 4 3 3 4 3 1 3 4 4 4 6 5 7 8 13 13 12 12 11 12 10 8 7 6 6 8 7 6 5 6 5 4 6 5 6 5 8 8 9 7
3 3 2 3 2 5 2 2 2 3 3 4 0 6 4 7 4 6 7 8 8 10 10 8 9 8 7 7 7 7 7 8 8 7 6 6 6 6 5 5 6 7 7 7
5 2 2 3 1 1 2 1 4 4 4 3 2 6 9 7 4 4 5 7 9 8 10 9 7 7 9 8 7 8 7 8 7 7 7 7 7 6 6 6 7 6 6 6
3 1 3 8 4 3 4 3 2 1 1 6 4 6 5 1 2 3 7 6 7 9 10 10 9 10 8 10 12 12 11 12 11 9 8 8 8 9 9 8 7 7 7 7
4 2 3 5 4 1 4 2 2 3 1 2 5 10 6 9 9 14 18 16 6 7 8 7 8 9 9 10 11 12 12 12 13 11 11 10 12 12 12 11 10 8 7 7
4 4 2 5 3 2 2 4 4 5 3 5 12 8 16 6 6 9 8 9 12 12 10 6 6 7 8 10 11 11 10 11 12 11 9 9 9 9 10 11 12 11 9 7
4 0 3 5 3 1 3 10 6 9 7 10 12 14 15 8 5 7 8 7 9 11 11 6 4 4 5 7 9 10 11 12 11 10 10 10 11 12 11 12 12 11 11 9
2 4 4 4 5 4 8 8 14 6 1 0 5 11 14 14 7 7 6 8 9 11 5 7 5 5 6 7 8 9 9 8 9 9 10 11 12 12 12 12 11 11 11 10
3 4 3 3 4 2 10 3 2 4 6 7 11 14 14 15 14 6 8 7 8 5 5 5 5 6 5 5 7 8 6 6 6 5 6 7 8 8 9 9 9 9 8 8
1 4 3 5 3 8 12 2 5 5 9 8 9 12 11 10 6 6 2 2 4 5 3 2 2 3 4 5 7 8 7 7 7 10 9 10 9 9 9 9 10 9 8 7
3 3 6 3 5 8 5 2 1 5 7 6 5 9 7 6 7 5 5 4 6 4 1 4 5 4 6 7 8 7 7 8 10 10 11 10 10 10 9 10 9 6 5 6
3 1 7 5 5 10 8 6 4 7 8 2 3 2 7 8 10 16 7 7 2 1 2 3 4 4 6 7 8 6 6 8 10 10 9 9 9 10 9 9 5 8 6 5
7 7 5 2 6 11 5 4 6 7 2 3 4 6 12 13 14 9 9 6 4 1 4 4 3 3 4 7 7 6 6 8 8 7 7 8 8 7 7 8 7 6 5 5
3 8 6 11 10 5 3 5 5 4 12 7 6 9 10 12 10 9 5 5 1 4 4 4 5 5 4 6 6 6 8 8 7 6 6 6 6 7 7 6 7 6 7 5
5 5 5 4 6 12 11 7 6 6 11 9 8 8 8 10 6 6 5 4 2 3 3 3 3 4 4 5 6 5 7 7 5 4 6 6 6 6 7 5 5 4 5 5
7 6 5 8 14 11 13 8 8 7 6 6 6 4 4 5 5 4 4 4 4 3 3 3 3 3 3 4 4 5 6 6 5 4 4 5 4 5 5 5 6 4 4 3
8 11 6 9 10 9 8 4 3 5 5 5 5 6 4 2 3 3 2 2 3 3 3 2 3 2 3 3 4 5 5 6 5 4 4 4 4 4 4 4 4 8 11 12
Wind_Direction
141 106 203 203 186 134 118 221 217 245 108 30 247 252 268 275 290 288 292 283 269 252 263 248 234 232 223 217 210 209 210 214 202 204 207 221 222 222 222 215 213 203 215 213
89 231 210 197 225 268 121 337 274 287 333 172 303 266 272 275 249 234 252 272 268 280 269 254 254 235 218 225 220 220 217 208 206 209 214 213 199 228 228 222 216 208 208 215
169 178 180 162 163 165 168 171 211 254 335 181 325 282 260 280 229 273 267 251 265 256 274 278 261 238 232 228 222 223 220 213 205 209 197 155 71 236 198 220 223 220 211 215
234 278 105 153 188 139 202 193 181 190 115 246 21 286 303 276 296 268 275 269 269 280 289 277 277 276 242 247 261 241 225 211 208 198 198 206 216 227 230 231 230 230 217 219
221 214 162 150 201 163 212 157 163 160 171 8 297 287 265 350 291 274 263 283 316 308 301 296 297 285 297 303 277 269 258 222 200 197 203 205 217 230 239 217 225 224 223 217
206 288 150 186 207 172 155 91 52 58 92 298 181 177 231 190 221 274 325 331 344 343 336 0 4 357 346 359 6 4 334 274 266 245 220 220 229 235 240 234 231 232 225 219
166 237 320 142 105 78 114 104 17 4 12 232 3 210 280 285 277 321 326 351 357 2 359 353 1 357 344 345 343 343 351 322 338 313 266 249 245 241 245 243 237 239 225 216
155 316 175 191 190 170 175 161 165 202 201 266 39 238 252 237 330 339 40 40 30 16 4 4 353 349 343 339 339 349 341 331 346 323 293 283 268 263 260 254 250 243 238 232
150 263 24 230 155 148 196 206 163 102 24 52 229 289 299 23 36 45 33 25 12 7 358 350 340 351 346 344 334 332 324 322 327 320 305 289 279 263 258 262 259 255 255 238
208 290 45 324 61 23 145 168 114 65 191 240 259 262 233 51 50 27 22 6 353 353 354 351 348 340 331 327 321 326 319 301 304 315 304 296 296 283 267 265 265 262 261 245
174 127 312 81 173 185 108 190 110 144 184 182 205 258 191 114 82 56 356 339 339 339 336 330 333 332 328 340 355 338 339 334 330 329 316 311 305 306 309 287 275 265 265 257
204 92 232 194 246 130 132 297 177 154 215 233 185 261 135 122 122 90 313 316 321 321 320 320 322 327 339 345 345 340 336 332 320 313 313 313 327 324 315 303 301 303 288 274
168 93 42 343 6 15 87 32 48 29 127 225 166 256 211 48 356 277 293 304 301 314 322 325 333 336 340 346 352 1 2 353 344 331 328 329 338 336 327 318 319 318 313 303
87 115 157 190 182 172 134 179 161 137 179 166 242 279 307 317 341 328 326 325 320 295 310 306 318 338 358 6 2 360 357 360 351 352 358 3 358 348 338 332 332 325 318 311
90 129 75 15 39 103 248 238 205 209 195 196 277 256 282 295 317 285 285 304 313 317 316 310 348 358 359 359 350 353 357 356 351 354 7 2 345 342 341 342 341 334 327 320
10 141 72 12 358 339 281 269 251 240 237 244 266 280 285 282 264 286 288 291 298 300 305 349 10 353 10 4 344 339 346 350 350 355 357 352 350 347 347 342 338 336 335 328
40 116 71 273 355 358 326 228 211 224 160 198 260 260 289 300 289 290 293 291 279 282 320 340 355 349 349 351 336 341 341 335 345 351 352 354 350 344 344 339 342 345 332 326
93 78 67 199 22 356 244 359 48 244 265 254 271 280 284 283 297 288 276 263 295 334 313 324 342 339 351 344 341 327 333 338 338 351 344 343 340 333 334 336 338 331 325 332
169 111 88 126 180 299 291 74 157 156 273 228 229 260 275 298 322 306 290 173 236 248 282 306 340 320 335 346 338 329 342 345 353 357 349 346 339 336 340 346 341 338 335 348
86 59 113 78 135 219 228 198 174 106 275 271 222 271 298 330 320 258 261 244 276 231 9 350 351 346 355 349 337 332 346 353 2 353 343 343 342 338 344 341 340 330 335 11
55 8 219 210 238 280 253 242 158 96 250 116 97 281 284 274 271 288 293 267 241 113 56 51 13 9 354 345 334 342 358 6 345 339 340 346 347 338 346 340 343 343 352 27
165 148 200 147 223 279 226 102 170 223 278 280 245 264 280 281 288 275 281 283 195 323 9 14 20 31 359 358 351 350 10 344 339 338 353 351 348 346 348 352 350 356 4 24
285 191 187 184 210 241 211 233 271 288 293 280 271 281 262 277 270 281 298 330 266 49 19 16 356 4 35 8 14 352 346 344 338 345 351 357 351 352 348 357 3 10 11 10
248 188 229 52 251 255 272 279 268 260 279 283 278 271 270 273 299 310 320 341 46 62 54 36 8 9 11 8 11 356 342 338 337 352 358 1 5 355 354 354 5 4 25 22
196 157 205 259 273 274 268 249 255 287 303 319 336 321 313 325 331 343 339 9 15 42 42 43 32 29 8 353 355 347 341 338 344 0 1 2 355 351 352 359 359 0 336 56
184 231 201 237 241 238 261 267 327 301 311 331 331 323 342 2 340 340 26 19 3 27 34 47 52 36 345 341 342 345 338 343 350 3 5 2 347 346 354 353 339 1 25 31